TITAN 3C TRANSTAGE DEB, 26527

Orbit data source: Space-Track

TITAN 3C TRANSTAGE DEB, 26527 is space debris in HEO originally from a launch on Tue, 21 Dec 1965 UTC launched from the Air Force Eastern Test Range (AFETR). Debris objects in space refer to the collection of defunct objects orbiting the Earth. Examples of debris include non-operational satellites, rocket bodies, and fragments generated from explosions, collisions, or faulty payload assembly.

Loading next visibility...
Identifier
26527, 1965-108AN
Orbit
HEO
Last TLE update
2 months ago
Origin
Manufacturer
Unknown
Mission
Spacecraft
Bus & Motor
Unknown
Mass
Unknown
Launch date (UTC)
1965-12-21 (59 years ago)
Launch vehicle
Unknown
Launch site
Air Force Eastern Test Range (AFETR)
Object type
Payload
Rocket body
Debris
Shape & HBR
Unknown
Radar Cross Section
Small (<0.1 m²)

Expand to show TLE details & history

TLE from 2 months ago
0 TITAN 3C TRANSTAGE DEB
1 26527U 65108AN  25080.34198972  .00000167  00000-0  48222-2 0  9994
2 26527  26.7272 132.7655 6755729 217.5552 156.4621  2.71379379257509
Epoch: 2025-03-21T08:12Z
Definitive object data (Epoch: 2025-03-21T08:12:27.911Z)
Latitude
13.52634°
Longitude
-140.92447°
Altitude
29,561.204 km
Speed
1.956 km/s
True Right ascension
10h 45m 10s
True Declination
13° 30' 39"
Sunlit
Object was in daylight at TLE epoch
Visualization TLE readout
Latitude
20.49782°
Longitude
-141.91424°
Altitude
25,708.276 km
Speed
2.547 km/s
Apparent Right ascension
10h 04m 26s
Apparent Declination
13° 59' 18"
Sunlit
Object is in daylight
Visualization observer readout
Local Sidereal Time
15:18:58
Azimuth
273.769° WNW
Elevation
17.566°
Doppler factor
1
Orbital elements
Apogee altitude
30,006.502 km
Perigee altitude
666.715 km
Semi-major axis
21,714.745 km
Eccentricity
0.6755729
Inclination
26.7272°
RAAN
132.7655°
Arg. of periapsis
217.5552°
True anomaly
173.7681°
Mean anomaly
156.4621°
Eccentric anomaly
165.89506°
Mean motion
0.67828 °/min
BSTAR
0.0048222
Orbital period
530.75 mins
Loading maneuver chart data...
Loading SW <> Apogee altitude chart data...

TITAN 3C TRANSTAGE DEB Visibility forecast

Observer location: undefined°, undefined°

Span
Click to sort rows by Start time (UTC) header in descending order
Start Az.
Max El. time (UTC)
Max El. Az.
Max El.
End time (UTC)
End Az.
343 mins2025-05-09 07:10:01.002Z273.748° WNW2025-05-09 08:00:01.002Z277.419° WNW17.875°2025-05-09 12:53:01.002Z240.899° WSW
467 mins2025-05-09 22:42:01.002Z186.662° SSW2025-05-10 04:08:01.002Z129.44° SE42.58°2025-05-10 06:29:01.002Z110.628° ESE
|